Pratama Nugroho

Chefscout - Maluku Utara United
27 Dez 2026
Sonntag
Verarbeitung

Persönlichkeit

Anpassungsfähigkeit (1) Ehrgeiz (6) Kontroverse (9) Loyalität (2) Druck (10) Professionalität (1) Fairness (15) Temperament (11)

Profil

Trainerstil Demokratisch
Lizenz Kontinentale B
Entschlossenheit 5
Menschenführung 8
Motivation 6
Disziplin 9
Arbeitszufriedenheit
50%
Ermüdung
0%
Rolle Chefscout
Gehalt 49.2K p/W
Vertrag 14.03.2028

Leistung

Verhalten Normal
Trainingseffektivität
13%
Spielerentwicklung
45%
Verletzungsprävention
20%
Taktische Umsetzung
35%

Letzte Ereignisse

Spieler begutachtet jetzt
Nahm an einer Scouting-Besprechung teil jetzt
Spieler begutachtet jetzt
Spieler begutachtet jetzt
Spieler begutachtet 7T her
Spieler begutachtet 7T her
Spieler begutachtet 7T her
Spieler begutachtet 7T her

Aktuell beobachtet

117
Spieler Verein Status Fähigkeit Vertrauen Beobachtet Zuletzt beobachtet Letzte Stimme
Stephen Humphrys Bradford City Aktiv 88 / 92 40% 1 25.12.2026 -
Charlie Savage Reading Aktiv 92 / 118 40% 1 25.12.2026 -
Marko Musulin Tarxien Rainbows Aktiv 88 / 99 40% 3 24.12.2026 -
Roman Dixon Walsall Aktiv 90 / 98 40% 1 24.12.2026 -
Nohan Kenneh Tranmere Rovers Aktiv 85 / 109 40% 2 23.12.2026 -
Géza Dávid Turi Grimsby Town Aktiv 98 / 82 40% 2 23.12.2026 -
Mason Bennett Harrogate Town Aktiv 94 / 102 40% 6 22.12.2026 -
Vincent Harper Walsall Aktiv 99 / 104 40% 2 22.12.2026 -
Francisco Rivera Persebaya Aktiv 107 / 113 40% 4 21.12.2026 -
Dalberto Arema Aktiv 127 / 116 40% 5 20.12.2026 -
Diego Maurício Semen Padang Aktiv 117 / 119 40% 2 20.12.2026 -
Ethan Coleman Gillingham Aktiv 87 / 105 40% 2 20.12.2026 -
Paul Glatzel Swindon Town Aktiv 96 / 89 40% 3 16.12.2026 -
Jack Vale Alcione Milano Aktiv 73 / 90 40% 2 16.12.2026 -
Danilo Santacruz Madura United Aktiv 114 / 108 40% 3 15.12.2026 -
Lewis McCann Fleetwood Town Aktiv 77 / 88 40% 1 15.12.2026 -
Ryan Stirk Chesterfield Aktiv 96 / 112 40% 3 12.12.2026 -
Elliot Bonds Fleetwood Town Aktiv 97 / 111 40% 1 12.12.2026 -
Matías Lacava Vizela Aktiv 87 / 122 40% 1 11.12.2026 -
Gustavo Almeida Persija Aktiv 94 / 103 40% 2 10.12.2026 -
Armando Lopes Felgueiras Aktiv 115 / 117 40% 2 10.12.2026 -
Tudor Mendel-Idowu Burton Albion Aktiv 106 / 113 40% 1 09.12.2026 -
Owen Bailey Doncaster Rovers Aktiv 91 / 124 40% 1 09.12.2026 -
Yann Kitala Vizela Aktiv 91 / 119 40% 1 08.12.2026 -
Fabricio Rojas Gimnasia y Tiro Aktiv 118 / 126 40% 5 07.12.2026 -
Clinton Mola Bristol Rovers Aktiv 85 / 80 40% 2 07.12.2026 -
Juan Pablo Barinaga Patronato Aktiv 113 / 91 40% 3 06.12.2026 -
Mésaque Djú Portimonense Aktiv 113 / 91 40% 2 06.12.2026 -
Matheus Alves Persita Aktiv 95 / 89 40% 1 06.12.2026 -
Jajá Madura United Aktiv 92 / 109 40% 1 05.12.2026 -
Frazer Blake-Tracy Mansfield Town Aktiv 94 / 92 40% 2 03.12.2026 -
Júnior Brandão Madura United Aktiv 98 / 116 40% 1 03.12.2026 -
Dušan Lagator PSM Aktiv 88 / 88 40% 2 01.12.2026 -
Lucas González Estudiantes Aktiv 94 / 114 40% 2 01.12.2026 -
Shaun Rooney Fleetwood Town Aktiv 116 / 79 40% 2 01.12.2026 -
Diego Campos Bali United Aktiv 96 / 96 40% 2 01.12.2026 -
Jude Soonsup-Bell Hapoel Acre Aktiv 94 / 102 40% 2 29.11.2026 -
Ibrahim Tanko Maccabi Netanya Aktiv 117 / 104 40% 1 29.11.2026 -
Charles Vernam Grimsby Town Aktiv 91 / 93 40% 2 27.11.2026 -
Pablo Ganet Persita Aktiv 99 / 93 40% 1 27.11.2026 -
Charlie Whitaker Tranmere Rovers Aktiv 116 / 96 40% 2 26.11.2026 -
Valentín Fenoglio Estudiantes Aktiv 98 / 123 40% 1 26.11.2026 -
Kamil Conteh Bristol Rovers Aktiv 108 / 100 40% 2 25.11.2026 -
Moisés Gaúcho Bhayangkara Presisi Aktiv 113 / 86 40% 3 24.11.2026 -
Thomas Sang Shrewsbury Town Aktiv 104 / 77 40% 1 24.11.2026 -
Alex Pattison Walsall Aktiv 81 / 97 40% 2 23.11.2026 -
Juan Pablo De la Reta Maipú Aktiv 125 / 98 40% 1 22.11.2026 -
Ezequiel Vidal PSIM Aktiv 115 / 108 40% 1 20.11.2026 -
Gonzalo Asis Almagro Aktiv 100 / 120 40% 1 20.11.2026 -
Mateus Castro Nagoya Grampus Aktiv 115 / 109 40% 3 19.11.2026 -
Luquinhas PSBS Biak Aktiv 97 / 90 40% 1 19.11.2026 -
Juan Manuel Vázquez Los Andes Aktiv 106 / 126 40% 2 18.11.2026 -
Jordan Roberts Stevenage Aktiv 105 / 103 40% 7 15.11.2026 -
Imanol García Persik Aktiv 87 / 82 40% 1 15.11.2026 -
Hakeeb Adelakun Doncaster Rovers Aktiv 115 / 111 40% 2 14.11.2026 -
Ben Jackson Barrow AFC Aktiv 105 / 89 40% 1 14.11.2026 -
James Tilley Wycombe Wanderers Aktiv 79 / 111 40% 2 13.11.2026 -
Kazaki Nakagawa Semen Padang Aktiv 104 / 86 40% 1 10.11.2026 -
David Gallardo Gimnasia y Esgrima Aktiv 96 / 94 40% 1 09.11.2026 -
Milan Ristovski Bhayangkara Presisi Aktiv 106 / 95 40% 1 08.11.2026 -
Kaio Nunes Borneo Aktiv 89 / 95 40% 1 08.11.2026 -
Javier Mena Deportivo Pereira Aktiv 88 / 113 40% 1 07.11.2026 -
Promise Omochere Bristol Rovers Aktiv 112 / 92 40% 2 06.11.2026 -
Conor Grant Notts County Aktiv 86 / 104 40% 1 06.11.2026 -
Macauley Southam-Hales Bristol Rovers Aktiv 99 / 106 40% 4 05.11.2026 -
Marcel Monsberger Vaduz Aktiv 96 / 98 40% 1 05.11.2026 -
Alexis Messidoro Dewa United Aktiv 111 / 106 40% 2 04.11.2026 -
Manu Sánchez Ceuta Aktiv 127 / 99 40% 1 03.11.2026 -
Kianz Froese Semen Padang Aktiv 92 / 89 40% 3 02.11.2026 -
Théo Berdayes Sion Aktiv 121 / 117 40% 2 02.11.2026 -
Sergio Castel Persik Aktiv 124 / 127 40% 1 31.10.2026 -
Alejandro Melo Temperley Aktiv 130 / 115 40% 1 31.10.2026 -
Jort van der Sande Bali United Aktiv 108 / 111 40% 2 30.10.2026 -
Sheriddin Boboev PSM Aktiv 96 / 95 40% 2 30.10.2026 -
Ezra Walian Persik Aktiv 110 / 109 40% 3 27.10.2026 -
Daniel Udoh Salford City Aktiv 95 / 119 40% 2 27.10.2026 -
Shungu Dutiro PSBS Biak Aktiv 104 / 101 40% 2 26.10.2026 -
Mohcine Hassan PSBS Biak Aktiv 74 / 88 40% 1 24.10.2026 -
Sávio PSM Aktiv 92 / 95 40% 4 23.10.2026 -
Alexandre Ramalingom Persita Aktiv 101 / 105 40% 1 20.10.2026 -
Adrián Dalmau PSIM Aktiv 98 / 99 40% 2 18.10.2026 -
Bernard Henri Doumbia Bhayangkara Presisi Aktiv 91 / 87 40% 1 18.10.2026 -
Sudi Abdallah Persijap Aktiv 105 / 86 40% 1 14.10.2026 -
Alejandro Samudio Nacional Aktiv 87 / 108 40% 1 13.10.2026 -
Alassana Jatta Notts County Aktiv 113 / 103 40% 1 13.10.2026 -
Olívio Tomé Benfica Aktiv 121 / 101 40% 2 08.10.2026 -
Muhammed Kabiru Arema Aktiv 99 / 109 40% 1 04.10.2026 -
Teppei Yachida Bali United Aktiv 76 / 94 40% 1 03.10.2026 -
Tyrese Shade Burton Albion Aktiv 94 / 86 40% 1 02.10.2026 -
Nicolás Talpone Colón Aktiv 113 / 94 40% 1 02.10.2026 -
Jean Mota Persija Aktiv 112 / 110 40% 1 28.09.2026 -
Eduardo Barbosa PSBS Biak Aktiv 105 / 84 40% 1 26.09.2026 -
Valentín Depietri Talleres Aktiv 143 / 117 40% 1 25.09.2026 -
Felipe Obradovich Ferro Carril Oeste Aktiv 130 / 100 40% 1 25.09.2026 -
Koldo Obieta Aktiv 111 / 93 40% 1 23.09.2026 -
Dylan Duffy Chesterfield Aktiv 118 / 98 40% 1 23.09.2026 -
Jacques Thémopelé PSM Aktiv 75 / 93 40% 1 21.09.2026 -
Abdoulaye Diarra Persijap Aktiv 85 / 107 40% 1 19.09.2026 -
Johnathan Dewa United Aktiv 113 / 111 40% 1 18.09.2026 -
Thom Haye Persib Aktiv 120 / 119 40% 1 15.09.2026 -
Miloš Raičković Persebaya Aktiv 113 / 102 40% 2 14.09.2026 -
Mark Helm Fleetwood Town Aktiv 100 / 100 40% 1 14.09.2026 -
Braian Uribe Huracán Aktiv 97 / 113 40% 1 13.09.2026 -
Cecilio Waterman Fenix Aktiv 91 / 119 40% 1 12.09.2026 -
Moussa Sidibé Bhayangkara Presisi Aktiv 113 / 93 40% 2 11.09.2026 -
Thomas Ortega Quilmes Aktiv 99 / 112 40% 1 09.09.2026 -
Uilliam Barros Persib Aktiv 103 / 113 40% 1 08.09.2026 -
Alejandro Valencia La Equidad Aktiv 128 / 135 40% 1 05.09.2026 -
Feby Eka Putra Persis Aktiv 84 / 91 40% 1 04.09.2026 -
Josh Woods Accrington Stanley Aktiv 67 / 65 40% 1 03.09.2026 -
Agustín Obregón River Plate Aktiv 109 / 129 40% 1 07.08.2026 -
Cristhofer Mesías Universidad de Concepcion Verloren 81 / 110 40% 1 07.08.2026 -
Jorge Espejo Universidad de Concepcion Aktiv 110 / 101 40% 1 05.08.2026 -
Juan Camilo Roa Aguilas Doradas Verloren 139 / 131 40% 1 02.08.2026 -
Gino Olguín Ferro Carril Oeste Aktiv 117 / 112 40% 1 02.08.2026 -
Jhojan Valencia Universidad Catolica Aktiv 94 / 113 40% 1 01.08.2026 -
Camilo Cándido Nacional Aktiv 104 / 109 40% 1 01.08.2026 -